Flag for Russia Weather past 2 weeks in Yakutsk, Russia

Now
68 °F

Sunny.


Feels Like: 68 °F
Forecast: 53 / 75 °F
Wind: 3 mph from Southeast

Location: Jakutsk

Current Time: Jul 30, 2015 at 9:28:10 AM

Latest Report: Jul 30, 2015 at 9:00 AM


Visibility: 10 mi

Pressure: 29.86 "Hg

Humidity: 60%

Dew point: 54 °F

Location of YakutskLocation

Historic Weather in Yakutsk — Graph

°F

Yakutsk temperature yesterday

Maximum temperature yesterday: 72 °F (at 4:00 PM)
Minimum temperature yesterday: 45 °F (at 3:30 AM)
Average temperature yesterday: 61 °F

Past Weeks' High & Low Weather Summary

 TemperatureHumidityPressure
High91 °F (Jul 18, 1:30 PM)94% (Jul 21, 9:30 AM)29.89 "Hg (Jul 21, 9:30 AM)
Low45 °F (Jul 26, 3:30 AM)23% (Jul 18, 5:00 PM)29.42 "Hg (Jul 22, 4:30 PM)
Average67 °F62%29.67 "Hg
* Reported Jul 15 8:30 AM — Jul 30 8:30 AM, Yakutsk, Weather by CustomWeather, © 2015

Note: Actual official high and low records may vary slightly from our data, if they occured in-between our weather recording intervals... More about our weather records

Advertising

Yakutsk weather history for previous 24 hours

 ConditionsComfort  
Time TempWeatherWind HumidityBarometerVisibility
8:30 AM
Thu, Jul 30
68 °FSunny.1 mph60%29.86 "Hg10 mi
8:00 AM66 °FSunny.1 mph56%29.86 "Hg10 mi
7:30 AM63 °FSunny.1 mph64%29.86 "Hg10 mi
7:00 AM61 °FSunny.No wind68%29.89 "Hg10 mi
6:30 AM57 °FSunny.1 mph72%29.89 "Hg10 mi
6:00 AM54 °FSunny.1 mph82%29.89 "Hg10 mi
5:30 AM52 °FSunny.3 mph82%29.89 "Hg10 mi
5:00 AM50 °FSunny.3 mph88%29.86 "Hg10 mi
4:30 AM48 °FSunny.6 mph87%29.89 "Hg10 mi
4:00 AM46 °FSunny.6 mph93%29.86 "Hg10 mi
3:30 AM48 °FClear.3 mph87%29.86 "Hg10 mi
3:00 AM48 °FClear.3 mph87%29.86 "Hg10 mi
2:30 AM50 °FClear.8 mph88%29.86 "Hg10 mi
2:00 AM50 °FClear.8 mph88%29.86 "Hg10 mi
1:30 AM52 °FClear.6 mph82%29.86 "Hg10 mi
1:00 AM52 °FClear.6 mph88%29.86 "Hg10 mi
12:30 AM52 °FClear.6 mph88%29.86 "Hg10 mi
12:00 AM52 °FClear.3 mph88%29.86 "Hg10 mi
11:30 PM
Wed, Jul 29
54 °FClear.3 mph82%29.86 "Hg10 mi
11:00 PM55 °FClear.6 mph82%29.86 "Hg10 mi
10:30 PM55 °FClear.3 mph82%29.86 "Hg10 mi
10:00 PM57 °FClear.1 mph77%29.86 "Hg10 mi
9:30 PM59 °FClear.1 mph72%29.86 "Hg10 mi
9:00 PM64 °FSunny.1 mph60%29.83 "Hg10 mi
8:30 PM68 °FSunny.1 mph53%29.83 "Hg10 mi
8:00 PM68 °FSunny.3 mph49%29.83 "Hg10 mi
7:30 PM70 °FSunny.3 mph46%29.83 "Hg10 mi
7:00 PM72 °FSunny.1 mph44%29.83 "Hg10 mi
6:30 PM72 °FPassing clouds.3 mph44%29.83 "HgN/A
6:00 PM72 °FScattered clouds.6 mph41%29.83 "HgN/A
5:30 PM70 °FScattered clouds.8 mph46%29.83 "HgN/A
4:30 PM70 °FScattered clouds.3 mph46%29.80 "HgN/A
4:00 PM72 °FScattered clouds.3 mph44%29.80 "HgN/A
3:30 PM70 °FScattered clouds.3 mph46%29.80 "HgN/A
3:00 PM70 °FScattered clouds.6 mph46%29.83 "HgN/A
2:30 PM70 °FScattered clouds.6 mph46%29.83 "HgN/A
2:00 PM70 °FScattered clouds.3 mph46%29.83 "HgN/A
1:30 PM68 °FScattered clouds.10 mph49%29.83 "HgN/A
1:00 PM68 °FScattered clouds.6 mph53%29.83 "HgN/A
12:30 PM70 °FScattered clouds.6 mph50%29.83 "HgN/A
12:00 PM68 °FScattered clouds.3 mph56%29.83 "HgN/A
11:30 AM70 °FScattered clouds.3 mph50%29.83 "HgN/A
11:00 AM68 °FScattered clouds.3 mph49%29.83 "HgN/A
10:30 AM64 °FScattered clouds.3 mph56%29.83 "HgN/A
10:00 AM64 °FSunny.3 mph56%29.83 "Hg10 mi
9:30 AM64 °FSunny.6 mph60%29.83 "Hg10 mi
9:00 AM63 °FPassing clouds.3 mph68%29.83 "HgN/A
Weather by CustomWeather, © 2015

See weather overviewHow to use our weather pages